Kodiak, AK

5:56 PM AKDT on April 21, 2018 (GMT -0800)
Kodiak

Weather History for PADQ - July, 2013

Change the Weather History Date:

Tuesday, July 9, 2013

  Actual Average Record
Temperature  
Mean Temperature 55 °F 54 °F  
Max Temperature 65 °F 59 °F 80 °F (1976)
Min Temperature 45 °F 49 °F 37 °F (1966)
Degree Days  
Heating Degree Days 10 11  
Month to date heating degree days 113 107  
Since 1 June heating degree days 444 568  
Since 1 July heating degree days 113 107  
Cooling Degree Days 0 0  
Month to date cooling degree days 0 0  
Year to date cooling degree days 3 0  
Since 1 June cooling degree days 3 0  
Growing Degree Days 5 (Base 50)    
Moisture  
Dew Point 44 °F    
Average Humidity 0    
Maximum Humidity 0    
Minimum Humidity 0    
Precipitation  
Precipitation 0.00 in 0.17 in 2.38 in (1935)
Month to date precipitation 1.04 1.47  
Year to date precipitation 30.59 38.77  
Snow  
Snow 0.00 in 0.00 in - ()
Month to date snowfall 0.0 0.0  
Since 1 June snowfall 0.0 0.0  
Since 1 July snowfall 0.0 0.0  
Snow Depth 0.00 in    
Sea Level Pressure  
Sea Level Pressure 30.02 in    
Wind  
Wind Speed 7 mph (WNW)    
Max Wind Speed 15 mph    
Max Gust Speed 20 mph    
Visibility 10 miles    
Events      
T = Trace of Precipitation, MM = Missing Value Source: NWS Daily Summary

Daily Weather History Graph

Daily Weather History Graph

Search for Another Location

Airport or City:

Astronomy

Jul. 09, 2013 Rise Set
Actual Time 5:24 AM AKDT 11:05 PM AKDT
Civil Twilight 4:17 AM AKDT 12:11 AM AKDT
Nautical Twilight 2:47 AM AKDT 1:42 AM AKDT
Astronomical Twilight Sun does not set Sun does not set
Moon 7:34 AM AKDT (7/9) 11:05 PM AKDT (7/9)
Length of Visible Light 19h 54m
Length of Day
17h 41m
New Moon, 2% of the Moon is Illuminated
Jul 9
New Moon
Jul 15
First Quarter
Jul 22
Full
Jul 29
Last Quarter
Aug 6
New

Hourly Weather History & Observations

Time (AKDT) Temp. Windchill Dew Point Humidity Pressure Visibility Wind Dir Wind Speed Gust Speed Precip Events Conditions
12:53 AM 46.0 °F 44.8 °F 42.1 °F 86% 29.91 in 10.0 mi West 3.5 mph - N/A   Mostly Cloudy
1:53 AM 45.0 °F 42.6 °F 41.0 °F 86% 29.91 in 10.0 mi West 4.6 mph - N/A   Mostly Cloudy
2:53 AM 46.9 °F - 42.1 °F 83% 29.90 in 10.0 mi WNW 4.6 mph - N/A   Overcast
3:53 AM 46.9 °F - 42.1 °F 83% 29.90 in 10.0 mi WNW 4.6 mph - N/A   Overcast
4:53 AM 48.0 °F - 42.1 °F 80% 29.90 in 10.0 mi Calm Calm - N/A   Overcast
5:53 AM 50.0 °F - 42.1 °F 74% 29.90 in 10.0 mi NW 6.9 mph - N/A   Overcast
6:53 AM 51.1 °F - 43.0 °F 74% 29.91 in 10.0 mi WNW 5.8 mph - N/A   Overcast
7:53 AM 51.1 °F - 43.0 °F 74% 29.94 in 10.0 mi NW 10.4 mph - N/A   Overcast
8:53 AM 52.0 °F - 43.0 °F 71% 29.96 in 10.0 mi NW 6.9 mph - N/A   Mostly Cloudy
9:51 AM 53.6 °F - 42.8 °F 67% 29.98 in 10.0 mi WNW 10.4 mph - N/A   Mostly Cloudy
9:53 AM 53.1 °F - 42.1 °F 66% 29.99 in 10.0 mi WNW 12.7 mph - N/A   Mostly Cloudy
10:53 AM 55.0 °F - 43.0 °F 64% 30.00 in 10.0 mi WNW 10.4 mph 16.1 mph N/A   Mostly Cloudy
11:00 AM 55.4 °F - 42.8 °F 63% 30.00 in 10.0 mi NW 10.4 mph - N/A   Mostly Cloudy
11:53 AM 57.0 °F - 44.1 °F 62% 30.03 in 10.0 mi WNW 9.2 mph - N/A   Mostly Cloudy
12:53 PM 60.1 °F - 43.0 °F 53% 30.04 in 10.0 mi WNW 8.1 mph - N/A   Scattered Clouds
1:53 PM 63.0 °F - 43.0 °F 48% 30.06 in 10.0 mi WSW 8.1 mph - N/A   Scattered Clouds
2:53 PM 63.0 °F - 43.0 °F 48% 30.08 in 10.0 mi Variable 6.9 mph - N/A   Scattered Clouds
3:53 PM 57.9 °F - 45.0 °F 62% 30.09 in 10.0 mi East 8.1 mph - N/A   Scattered Clouds
4:53 PM 60.1 °F - 46.0 °F 60% 30.10 in 10.0 mi ENE 6.9 mph - N/A   Scattered Clouds
5:53 PM 59.0 °F - 46.0 °F 62% 30.11 in 10.0 mi NNE 4.6 mph - N/A   Scattered Clouds
6:53 PM 61.0 °F - 46.0 °F 58% 30.12 in 10.0 mi NE 4.6 mph - N/A   Scattered Clouds
7:53 PM 64.9 °F - 45.0 °F 48% 30.12 in 10.0 mi WNW 8.1 mph - N/A   Scattered Clouds
8:53 PM 63.0 °F - 45.0 °F 52% 30.13 in 10.0 mi WNW 6.9 mph - N/A   Scattered Clouds
9:53 PM 62.1 °F - 46.0 °F 56% 30.14 in 10.0 mi West 3.5 mph - N/A   Scattered Clouds
10:53 PM 55.0 °F - 46.0 °F 72% 30.15 in 10.0 mi West 6.9 mph - N/A   Scattered Clouds
11:53 PM 52.0 °F - 45.0 °F 77% 30.16 in 10.0 mi West 6.9 mph - N/A   Partly Cloudy